レモン彗星

C/2017 F1 ( Lemmon )

English version
Home page
Updated on February 13, 2018

---------------------------------------------------------------------

・ プロフィール

発見日 2017年3月20日
発見光度 21.7等
発見者 G. J. Leonard (Mount Lemmon)

・ 写真集

・ 軌道要素

Epoch 2017 Nov. 23.0 TT = JDT 2458080.5
T 2017 Nov. 30.99345 TT                                 MPCW
q   4.4997837            (2000.0)            P               Q
z  -0.0009748      Peri.   64.81645     -0.12303204     +0.97199766
 +/-0.0000068      Node   158.74261     +0.58787276     -0.09115363
e   1.0043865      Incl.  146.48110     +0.79954283     +0.21659077
From 76 observations 2017 Mar. 20-2018 Jan. 20, mean residual 0".5.

・ 光度変化

        m1 = 10.5 + 5 logΔ + 10.0 log r

---------------------------------------------------------------------

軌道要素はM.P.E.C. 2018-B155に掲載されたものです。
光度グラフはComet for Windowsで作成したものです。

---------------------------------------------------------------------

Copyright(C) Seiichi Yoshida (comet@aerith.net). All rights reserved.